カタログに戻る

STARLINK-37560

運用中通信VLEO
NORAD 100036·PAYLOAD·🇺🇸 United States

打ち上げ Jul 14, 2026 から Cape Canaveral Space Force Station

Loading…

次のパス (今後24時間)

TLE

最新Source: Space-Track

元期: Sep 14, 2026, 17:45 UTC

1 A0036U 26161J   26257.74005081  .00018634  00000-0  56065-3 0  9999
2 A0036  53.1611  24.8294 0000523  78.2552 281.8509 15.34434355  9724

AllMySatでSTARLINK-37560をリアルタイム追跡

Download on the App Store